| time (UTC) | temp F | wind direction | speed MPH | gust MPH | rain 1hr in | rain 24hr in | rain mn in | humidity % | barometer mb |
| 20260506223603 | 60 | 329 | 1.0 | 3.0 | 0.00 | 0.45 | 0.08 | 46 | 1015.5 |
| 20260506222703 | 60 | 328 | 2.0 | 6.0 | 0.00 | 0.45 | 0.08 | 47 | 1015.6 |
| 20260506221803 | 61 | 325 | 1.0 | 5.0 | 0.00 | 0.45 | 0.08 | 47 | 1015.6 |
| 20260506220903 | 61 | 323 | 2.0 | 5.0 | 0.00 | 0.45 | 0.08 | 45 | 1015.5 |
| 20260506220003 | 61 | 327 | 0.0 | 3.0 | 0.00 | 0.45 | 0.08 | 49 | 1015.5 |
| 20260506215403 | 60 | 348 | 0.0 | 1.0 | 0.00 | 0.45 | 0.08 | 48 | 1015.6 |
| 20260506214503 | 60 | 326 | 0.0 | 4.0 | 0.00 | 0.45 | 0.08 | 46 | 1015.7 |
| 20260506213624 | 61 | 329 | 1.0 | 5.0 | 0.00 | 0.45 | 0.08 | 45 | 1015.7 |
| 20260506212703 | 61 | 324 | 0.0 | 4.0 | 0.00 | 0.45 | 0.08 | 48 | 1015.7 |
| 20260506211803 | 60 | 335 | 1.0 | 4.0 | 0.00 | 0.45 | 0.08 | 49 | 1015.7 |
| 20260506210924 | 60 | 329 | 1.0 | 3.0 | 0.00 | 0.46 | 0.08 | 48 | 1015.7 |
| 20260506210003 | 60 | 335 | 1.0 | 5.0 | 0.00 | 0.46 | 0.08 | 49 | 1015.8 |
| 20260506205424 | 60 | 335 | 1.0 | 5.0 | 0.00 | 0.46 | 0.08 | 50 | 1015.8 |
| 20260506204503 | 60 | 342 | 1.0 | 6.0 | 0.00 | 0.46 | 0.08 | 48 | 1015.9 |
| 20260506203603 | 60 | 333 | 3.0 | 10.0 | 0.00 | 0.46 | 0.08 | 47 | 1016.1 |
| 20260506202724 | 60 | 326 | 3.0 | 12.0 | 0.00 | 0.46 | 0.08 | 47 | 1016.1 |
| 20260506201803 | 61 | 326 | 2.0 | 8.0 | 0.00 | 0.46 | 0.08 | 46 | 1016.2 |
| 20260506200903 | 60 | 326 | 2.0 | 8.0 | 0.00 | 0.48 | 0.08 | 48 | 1016.4 |
| 20260506200024 | 60 | 330 | 2.0 | 9.0 | 0.00 | 0.50 | 0.08 | 45 | 1016.4 |
| 20260506195403 | 60 | 329 | 2.0 | 9.0 | 0.00 | 0.50 | 0.08 | 47 | 1016.5 |
| 20260506194503 | 60 | 331 | 3.0 | 11.0 | 0.00 | 0.50 | 0.08 | 46 | 1016.5 |
| 20260506193603 | 61 | 330 | 2.0 | 11.0 | 0.00 | 0.50 | 0.08 | 47 | 1016.4 |
| 20260506192703 | 60 | 327 | 3.0 | 11.0 | 0.00 | 0.50 | 0.08 | 45 | 1016.6 |
| 20260506191803 | 60 | 329 | 3.0 | 13.0 | 0.00 | 0.50 | 0.08 | 44 | 1016.7 |
| 20260506190903 | 60 | 335 | 3.0 | 11.0 | 0.00 | 0.50 | 0.08 | 45 | 1016.6 |
| 20260506190003 | 60 | 330 | 2.0 | 12.0 | 0.00 | 0.50 | 0.08 | 46 | 1016.3 |
| 20260506185403 | 59 | 327 | 2.0 | 12.0 | 0.00 | 0.50 | 0.08 | 48 | 1016.2 |
| 20260506184503 | 60 | 325 | 3.0 | 9.0 | 0.00 | 0.50 | 0.08 | 48 | 1016.2 |
| 20260506183624 | 59 | 325 | 2.0 | 6.0 | 0.00 | 0.50 | 0.08 | 51 | 1016.2 |
| 20260506182703 | 59 | 324 | 2.0 | 7.0 | 0.00 | 0.51 | 0.08 | 53 | 1016.3 |
| 20260506181803 | 58 | 323 | 2.0 | 6.0 | 0.00 | 0.52 | 0.08 | 52 | 1016.5 |
| 20260506180903 | 59 | 323 | 2.0 | 5.0 | 0.00 | 0.52 | 0.08 | 56 | 1016.7 |
| 20260506180004 | 59 | 324 | 2.0 | 7.0 | 0.00 | 0.52 | 0.08 | 59 | 1016.7 |
| 20260506175403 | 58 | 326 | 1.0 | 4.0 | 0.00 | 0.52 | 0.08 | 58 | 1016.6 |
| 20260506174503 | 58 | 329 | 3.0 | 9.0 | 0.00 | 0.52 | 0.08 | 62 | 1016.6 |
| 20260506173603 | 56 | 323 | 1.0 | 6.0 | 0.00 | 0.52 | 0.08 | 75 | 1016.6 |
| 20260506172703 | 53 | 320 | 3.0 | 9.0 | 0.00 | 0.52 | 0.08 | 93 | 1016.7 |
| 20260506171803 | 53 | 328 | 2.0 | 6.0 | 0.00 | 0.52 | 0.08 | 94 | 1016.6 |
| 20260506170903 | 53 | 329 | 2.0 | 8.0 | 0.00 | 0.52 | 0.08 | 94 | 1016.7 |
| 20260506170003 | 53 | 331 | 2.0 | 4.0 | 0.00 | 0.52 | 0.08 | 95 | 1016.5 |
| 20260506165403 | 52 | 333 | 2.0 | 6.0 | 0.00 | 0.52 | 0.08 | 95 | 1016.6 |
| 20260506164503 | 52 | 330 | 2.0 | 5.0 | 0.00 | 0.52 | 0.08 | 96 | 1016.6 |
| 20260506163603 | 52 | 329 | 2.0 | 6.0 | 0.00 | 0.52 | 0.08 | 95 | 1016.4 |
| 20260506162703 | 51 | 328 | 2.0 | 7.0 | 0.00 | 0.52 | 0.08 | 96 | 1016.5 |
| 20260506161803 | 51 | 326 | 2.0 | 7.0 | 0.00 | 0.52 | 0.08 | 96 | 1016.5 |
| 20260506160924 | 51 | 333 | 1.0 | 7.0 | 0.00 | 0.52 | 0.08 | 96 | 1016.3 |
| 20260506160024 | 51 | 321 | 1.0 | 2.0 | 0.00 | 0.52 | 0.08 | 96 | 1016.1 |
| 20260506155403 | 50 | 325 | 1.0 | 2.0 | 0.00 | 0.52 | 0.08 | 96 | 1016.2 |
| 20260506154503 | 50 | 325 | 2.0 | 4.0 | 0.00 | 0.52 | 0.08 | 96 | 1016.2 |
| 20260506153603 | 50 | 324 | 2.0 | 4.0 | 0.00 | 0.52 | 0.08 | 96 | 1016.1 |
| 20260506152703 | 50 | 349 | 1.0 | 3.0 | 0.00 | 0.52 | 0.08 | 96 | 1015.8 |
| 20260506151803 | 50 | 328 | 1.0 | 3.0 | 0.00 | 0.52 | 0.08 | 97 | 1015.7 |
| 20260506150903 | 49 | 343 | 0.0 | 4.0 | 0.00 | 0.52 | 0.08 | 97 | 1015.6 |
| 20260506150003 | 49 | 332 | 1.0 | 3.0 | 0.00 | 0.52 | 0.08 | 97 | 1015.6 |
| 20260506145403 | 49 | 333 | 1.0 | 3.0 | 0.00 | 0.52 | 0.08 | 97 | 1015.7 |
| 20260506144503 | 49 | 0 | 0.0 | 0.0 | 0.00 | 0.52 | 0.08 | 97 | 1015.6 |
| 20260506143603 | 49 | 0 | 0.0 | 0.0 | 0.00 | 0.52 | 0.08 | 97 | 1015.3 |
| 20260506142703 | 49 | 0 | 0.0 | 0.0 | 0.00 | 0.52 | 0.08 | 97 | 1015.5 |
| 20260506141803 | 49 | 327 | 0.0 | 1.0 | 0.00 | 0.52 | 0.08 | 97 | 1015.4 |
| 20260506140903 | 49 | 337 | 1.0 | 5.0 | 0.00 | 0.52 | 0.08 | 97 | 1015.6 |
| 20260506140003 | 48 | 333 | 2.0 | 6.0 | 0.00 | 0.52 | 0.08 | 97 | 1015.8 |
| 20260506135403 | 48 | 323 | 1.0 | 6.0 | 0.00 | 0.52 | 0.08 | 97 | 1015.7 |
| 20260506134503 | 48 | 335 | 2.0 | 7.0 | 0.00 | 0.52 | 0.08 | 97 | 1015.5 |
| 20260506133603 | 48 | 337 | 1.0 | 6.0 | 0.00 | 0.52 | 0.08 | 97 | 1015.6 |
| 20260506132703 | 48 | 344 | 0.0 | 4.0 | 0.00 | 0.52 | 0.08 | 97 | 1015.5 |
| 20260506131803 | 48 | 330 | 0.0 | 3.0 | 0.00 | 0.52 | 0.08 | 97 | 1015.6 |
| 20260506130904 | 48 | 337 | 1.0 | 5.0 | 0.00 | 0.52 | 0.08 | 97 | 1015.5 |
| 20260506130004 | 48 | 340 | 0.0 | 2.0 | 0.00 | 0.53 | 0.08 | 97 | 1015.3 |
| 20260506125403 | 47 | 347 | 0.0 | 2.0 | 0.00 | 0.54 | 0.08 | 97 | 1015.2 |
| 20260506124503 | 47 | 5 | 0.0 | 1.0 | 0.00 | 0.55 | 0.08 | 97 | 1015.1 |
| 20260506123603 | 47 | 274 | 0.0 | 2.0 | 0.00 | 0.56 | 0.08 | 97 | 1015.1 |
| 20260506122703 | 47 | 321 | 0.0 | 2.0 | 0.00 | 0.56 | 0.08 | 97 | 1015.1 |
| 20260506121803 | 47 | 325 | 0.0 | 1.0 | 0.00 | 0.57 | 0.08 | 97 | 1015.0 |
| 20260506120903 | 47 | 0 | 0.0 | 0.0 | 0.00 | 0.57 | 0.08 | 97 | 1014.6 |
| 20260506120003 | 47 | 325 | 0.0 | 1.0 | 0.00 | 0.59 | 0.08 | 97 | 1014.7 |
| 20260506115424 | 47 | 221 | 0.0 | 1.0 | 0.00 | 0.66 | 0.08 | 97 | 1014.8 |
| 20260506114503 | 47 | 214 | 0.0 | 2.0 | 0.00 | 0.67 | 0.08 | 97 | 1015.0 |
| 20260506113603 | 47 | 329 | 0.0 | 1.0 | 0.00 | 0.67 | 0.08 | 97 | 1014.7 |
| 20260506112724 | 47 | 325 | 0.0 | 2.0 | 0.00 | 0.67 | 0.08 | 97 | 1014.8 |
| 20260506111803 | 47 | 244 | 0.0 | 2.0 | 0.00 | 0.67 | 0.08 | 97 | 1014.3 |
| 20260506110903 | 47 | 334 | 0.0 | 1.0 | 0.00 | 0.69 | 0.08 | 96 | 1014.2 |
| 20260506110003 | 47 | 333 | 0.0 | 1.0 | 0.01 | 0.71 | 0.08 | 96 | 1013.4 |
| 20260506105403 | 47 | 333 | 0.0 | 1.0 | 0.01 | 0.71 | 0.08 | 96 | 1013.5 |
| 20260506104504 | 47 | 0 | 0.0 | 1.0 | 0.01 | 0.71 | 0.08 | 96 | 1013.1 |
| 20260506103603 | 47 | 0 | 0.0 | 0.0 | 0.02 | 0.71 | 0.08 | 96 | 1012.6 |
| 20260506102703 | 47 | 0 | 0.0 | 0.0 | 0.02 | 0.71 | 0.08 | 96 | 1012.6 |
| 20260506101803 | 47 | 0 | 0.0 | 0.0 | 0.02 | 0.71 | 0.08 | 96 | 1012.8 |
| 20260506100903 | 47 | 335 | 0.0 | 1.0 | 0.02 | 0.71 | 0.08 | 96 | 1012.9 |
| 20260506100004 | 47 | 339 | 0.0 | 1.0 | 0.01 | 0.70 | 0.07 | 96 | 1012.9 |
| 20260506095403 | 47 | 353 | 0.0 | 1.0 | 0.01 | 0.70 | 0.07 | 96 | 1012.9 |
| 20260506094503 | 46 | 63 | 0.0 | 1.0 | 0.01 | 0.70 | 0.07 | 96 | 1012.7 |
| 20260506093603 | 47 | 347 | 0.0 | 2.0 | 0.00 | 0.69 | 0.06 | 96 | 1012.9 |
| 20260506092703 | 47 | 0 | 0.0 | 1.0 | 0.01 | 0.69 | 0.06 | 96 | 1013.0 |
| 20260506091803 | 47 | 0 | 0.0 | 0.0 | 0.01 | 0.69 | 0.06 | 96 | 1012.9 |
| 20260506090903 | 47 | 0 | 0.0 | 0.0 | 0.01 | 0.69 | 0.06 | 96 | 1013.0 |
| 20260506090003 | 47 | 211 | 0.0 | 1.0 | 0.01 | 0.69 | 0.06 | 96 | 1013.4 |
| 20260506085403 | 47 | 329 | 0.0 | 1.0 | 0.01 | 0.69 | 0.06 | 96 | 1013.4 |
| 20260506084503 | 47 | 0 | 0.0 | 1.0 | 0.01 | 0.69 | 0.06 | 96 | 1013.0 |
| 20260506083603 | 47 | 0 | 0.0 | 1.0 | 0.01 | 0.69 | 0.06 | 96 | 1012.8 |
| 20260506082703 | 47 | 201 | 0.0 | 1.0 | 0.00 | 0.68 | 0.05 | 96 | 1012.6 |
| 20260506081803 | 47 | 0 | 0.0 | 0.0 | 0.00 | 0.68 | 0.05 | 96 | 1012.9 |
| 20260506080903 | 47 | 334 | 0.0 | 2.0 | 0.00 | 0.68 | 0.05 | 96 | 1013.1 |
| 20260506072703 | 46 | 321 | 0.0 | 1.0 | 0.01 | 0.68 | 0.05 | 96 | 1012.3 |
| 20260506071803 | 46 | 321 | 0.0 | 2.0 | 0.01 | 0.68 | 0.05 | 96 | 1012.6 |
| 20260506070903 | 46 | 323 | 0.0 | 3.0 | 0.01 | 0.68 | 0.05 | 96 | 1013.0 |
| 20260506061803 | 47 | 0 | 0.0 | 1.0 | 0.03 | 0.67 | 0.04 | 96 | 1012.5 |
| 20260506060924 | 46 | 0 | 0.0 | 0.0 | 0.04 | 0.67 | 0.04 | 95 | 1012.4 |
| 20260506050903 | 47 | 327 | 0.0 | 2.0 | 0.01 | 0.63 | 0.00 | 95 | 1012.4 |
| 20260506044503 | 47 | 328 | 0.0 | 1.0 | 0.02 | 0.63 | 0.63 | 95 | 1012.3 |
| 20260506043603 | 47 | 329 | 0.0 | 1.0 | 0.02 | 0.63 | 0.63 | 95 | 1012.1 |
| 20260506042703 | 47 | 0 | 0.0 | 0.0 | 0.02 | 0.63 | 0.63 | 95 | 1012.3 |
| 20260506041803 | 47 | 330 | 0.0 | 1.0 | 0.01 | 0.62 | 0.62 | 95 | 1012.5 |
| 20260506040903 | 47 | 329 | 0.0 | 1.0 | 0.01 | 0.62 | 0.62 | 95 | 1012.1 |
| 20260506040003 | 47 | 333 | 0.0 | 1.0 | 0.00 | 0.61 | 0.61 | 95 | 1012.5 |
| 20260506035403 | 47 | 334 | 0.0 | 2.0 | 0.00 | 0.61 | 0.61 | 95 | 1012.7 |
| 20260506034503 | 46 | 333 | 1.0 | 3.0 | 0.00 | 0.61 | 0.61 | 95 | 1012.6 |
| 20260506033603 | 47 | 328 | 0.0 | 2.0 | 0.00 | 0.61 | 0.61 | 95 | 1012.9 |
| 20260506032703 | 46 | 326 | 0.0 | 1.0 | 0.00 | 0.61 | 0.61 | 95 | 1012.3 |
| 20260506031803 | 46 | 0 | 0.0 | 1.0 | 0.01 | 0.61 | 0.61 | 95 | 1012.2 |
| 20260506030903 | 46 | 0 | 0.0 | 0.0 | 0.01 | 0.61 | 0.61 | 95 | 1012.0 |
| 20260506030003 | 46 | 300 | 0.0 | 1.0 | 0.02 | 0.61 | 0.61 | 94 | 1011.7 |
| 20260506025403 | 46 | 298 | 0.0 | 1.0 | 0.03 | 0.61 | 0.61 | 94 | 1011.5 |
| 20260506024524 | 46 | 0 | 0.0 | 1.0 | 0.04 | 0.61 | 0.61 | 94 | 1011.6 |
| 20260506023603 | 46 | 0 | 0.0 | 0.0 | 0.05 | 0.61 | 0.61 | 94 | 1011.8 |
| 20260506022703 | 46 | 0 | 0.0 | 0.0 | 0.07 | 0.61 | 0.61 | 94 | 1011.8 |
| 20260506021803 | 46 | 0 | 0.0 | 0.0 | 0.06 | 0.60 | 0.60 | 94 | 1011.8 |
| 20260506020903 | 46 | 0 | 0.0 | 1.0 | 0.07 | 0.60 | 0.60 | 94 | 1011.9 |
| 20260506020004 | 46 | 317 | 0.0 | 1.0 | 0.07 | 0.59 | 0.59 | 94 | 1011.7 |
| 20260506015403 | 46 | 302 | 0.0 | 1.0 | 0.07 | 0.58 | 0.58 | 94 | 1011.5 |
| 20260506014503 | 46 | 322 | 0.0 | 1.0 | 0.09 | 0.57 | 0.57 | 94 | 1011.8 |
| 20260506013603 | 46 | 321 | 0.0 | 1.0 | 0.10 | 0.56 | 0.56 | 94 | 1011.9 |
| 20260506012726 | 46 | 325 | 0.0 | 2.0 | 0.08 | 0.54 | 0.54 | 94 | 1010.7 |
| 20260506011803 | 46 | 120 | 0.0 | 1.0 | 0.08 | 0.54 | 0.54 | 94 | 1011.5 |
| 20260506010924 | 46 | 0 | 0.0 | 1.0 | 0.08 | 0.53 | 0.53 | 93 | 1011.0 |
| 20260506010003 | 46 | 0 | 0.0 | 0.0 | 0.09 | 0.52 | 0.52 | 93 | 1010.9 |
| 20260506005424 | 46 | 322 | 0.0 | 3.0 | 0.11 | 0.51 | 0.51 | 93 | 1010.8 |
| 20260506004504 | 46 | 320 | 0.0 | 5.0 | 0.09 | 0.48 | 0.48 | 93 | 1010.7 |
| 20260506003603 | 46 | 323 | 0.0 | 2.0 | 0.10 | 0.46 | 0.46 | 93 | 1011.3 |
| 20260506002703 | 46 | 319 | 0.0 | 2.0 | 0.14 | 0.46 | 0.46 | 94 | 1010.9 |
| 20260506001803 | 47 | 322 | 0.0 | 2.0 | 0.18 | 0.46 | 0.46 | 94 | 1010.6 |
| 20260506000903 | 47 | 325 | 0.0 | 1.0 | 0.18 | 0.45 | 0.45 | 93 | 1010.6 |
| 20260506000003 | 47 | 325 | 0.0 | 5.0 | 0.17 | 0.43 | 0.43 | 93 | 1010.4 |
| 20260505235403 | 47 | 325 | 1.0 | 5.0 | 0.14 | 0.40 | 0.40 | 93 | 1010.5 |
| 20260505234503 | 47 | 325 | 0.0 | 3.0 | 0.13 | 0.39 | 0.39 | 93 | 1010.1 |
| 20260505233603 | 47 | 324 | 1.0 | 3.0 | 0.10 | 0.36 | 0.36 | 92 | 1010.3 |
| 20260505232703 | 48 | 322 | 0.0 | 2.0 | 0.06 | 0.32 | 0.32 | 91 | 1009.6 |
| 20260505231803 | 48 | 324 | 1.0 | 3.0 | 0.02 | 0.28 | 0.28 | 91 | 1010.7 |
| 20260505230904 | 48 | 324 | 1.0 | 6.0 | 0.01 | 0.27 | 0.27 | 91 | 1010.0 |
| 20260505230003 | 48 | 325 | 0.0 | 5.0 | 0.00 | 0.26 | 0.26 | 91 | 1010.2 |
| 20260505225403 | 48 | 325 | 0.0 | 5.0 | 0.00 | 0.26 | 0.26 | 91 | 1009.9 |
| 20260505224503 | 48 | 323 | 1.0 | 6.0 | 0.00 | 0.26 | 0.26 | 91 | 1009.5 |